English version Home page |
Updated on February 17, 2021 |
|
軌道要素Epoch 2014 May 23.0 TT = JDT 2456800.5 T 2014 May 22.01458 TT Bell q 2.1411176 (2000.0) P Q n 0.13781580 Peri. 185.81453 -0.71076192 +0.68168117 a 3.7119607 Node 39.08921 -0.63378594 -0.51353577 e 0.4231842 Incl. 15.97897 -0.30517679 -0.52114469 P 7.15 From 423 observations 2014 Jan. 6-2021 Jan. 10, mean residual 0".8.
|
星図
|
光度変化m1 = 11.0 + 5 logΔ + 15.0 log r
|
軌道要素はM.P.E.C. 2021-A147に掲載されたものです。
|